Flag for China Weather past 2 weeks in Lanzhou, China

Now
39 °F

Clear.


Feels Like: 39 °F
Forecast: 40 / 66 °F
Wind: 1 mph from North

Location: Lanzhou / Zhongchuan


UV Index: 7 (High)

Visibility: 4 mi


Pressure: 30.21 "Hg

Humidity: 81%

Dew point: 34 °F

Location of LanzhouLocation

Historic Weather in Lanzhou

°F

Lanzhou temperature yesterday

Maximum temperature yesterday: 46 °F (at 11:00 AM)
Minimum temperature yesterday: 37 °F (at 9:00 PM)
Average temperature yesterday: 43 °F

Past Weeks' High & Low Weather Summary

 TemperatureHumidityPressure
High75 °F (Apr 8, 5:00 PM)100% (Apr 15, 5:00 AM)30.30 "Hg (Apr 15, 5:00 AM)
Low28 °F (Apr 7, 7:00 AM)6% (Apr 8, 5:00 PM)29.74 "Hg (Apr 14, 5:00 PM)
Average49 °F63%30.04 "Hg
* Reported Apr 6 10:00 PM — Apr 21 10:00 PM, Lanzhou, Weather by CustomWeather, © 2014

Note: Actual official high and low records may vary slightly from our data, if they occured in-between our weather recording intervals... More about our weather records

Advertising

Historic Weather Conditions — Data for Previous 24 hours

 ConditionsComfort  
Time TempWeatherWind HumidityBarometerVisibility
10:00 PM
Apr 21
43 °FClear.No wind71%30.21 "Hg4 mi
9:00 PM45 °FClear.1 mph66%30.21 "Hg10 mi
8:00 PM45 °FSunny.1 mph66%30.18 "Hg10 mi
7:00 PM48 °FPassing clouds.3 mph54%30.15 "HgN/A
6:00 PM48 °FScattered clouds.3 mph54%30.18 "HgN/A
5:00 PM48 °FScattered clouds.8 mph58%30.18 "HgN/A
4:00 PM48 °FScattered clouds.6 mph50%30.18 "HgN/A
3:00 PM48 °FScattered clouds.8 mph46%30.21 "HgN/A
2:00 PM46 °FBroken clouds.6 mph50%30.24 "HgN/A
1:00 PM46 °FPartly sunny.8 mph57%30.24 "HgN/A
12:00 PM45 °FPartly sunny.10 mph71%30.27 "HgN/A
11:00 AM45 °FPassing clouds.8 mph66%30.27 "HgN/A
10:00 AM43 °FPassing clouds.6 mph61%30.27 "HgN/A
9:00 AM39 °FPassing clouds.3 mph81%30.27 "HgN/A
8:00 AM37 °FSunny.1 mph75%30.27 "Hg10 mi
7:00 AM37 °FClear.3 mph81%30.21 "Hg10 mi
6:00 AM36 °FLight rain. Overcast.6 mph93%30.21 "HgN/A
5:00 AM36 °FFog.3 mph93%30.21 "Hg2 mi
4:00 AM36 °FLight rain. Overcast.3 mph93%30.21 "Hg4 mi
3:00 AM36 °FOvercast.6 mph93%30.24 "HgN/A
2:00 AM37 °FLight rain. Overcast.3 mph75%30.24 "HgN/A
1:00 AM37 °FLight rain. Overcast.1 mph87%30.24 "HgN/A
12:00 AM37 °FOvercast.3 mph87%30.24 "HgN/A
11:00 PM
Apr 20
37 °FLight rain. Mostly cloudy.3 mph81%30.24 "HgN/A
Weather by CustomWeather, © 2014

See weather overview